Hourly Data Report for September 22, 2016

All times are specified in Local Standard Time (LST). Add 1 hour to adjust for Daylight Saving Time where and when it is observed.

CHARLOTTETOWN A
PRINCE EDWARD ISLAND

46°17'21.000" N
63°07'09.000" W
48.50 m
8300301
71706
YYG

Download Data

Hourly Data (September 2016)
Hourly Data Report for September 22, 2016
Temp Definition
°C
Dew Point Temp Definition
°C
Rel Hum Definition
%
Wind Dir Definition
10's deg

Wind Spd Definition
km/h
Visibility Definition
km
Stn Press Definition
kPa
Hmdx Definition


Wind Chill Definition


Weather Definition


TIME
00:00 Legend Double Dagger 15.6 12.4 81 26 13 24.1 100.90     LegendNANA
01:00 Legend Double Dagger 15.4 10.8 74 28 14 24.1 100.92     LegendNANA
02:00 Legend Double Dagger 15.5 10.5 72 29 11 24.1 100.89     Clear
03:00 Legend Double Dagger 14.7 10.2 74 28 10 24.1 100.88     LegendNANA
04:00 Legend Double Dagger 14.1 10.0 76 25 13 24.1 100.90     LegendNANA
05:00 Legend Double Dagger 13.9 10.4 79 27 12 24.1 100.98     Clear
06:00 Legend Double Dagger 13.9 11.1 83 26 18 24.1 101.06     LegendNANA
07:00 Legend Double Dagger 13.8 11.0 83 26 14 24.1 101.10     LegendNANA
08:00 Legend Double Dagger 16.0 11.4 74 28 14 24.1 101.13     Mainly Clear
09:00 Legend Double Dagger 17.2 9.2 59 31 19 24.1 101.19     LegendNANA
10:00 Legend Double Dagger 18.2 5.9 44 30 19 24.1 101.20     LegendNANA
11:00 Legend Double Dagger 18.3 7.2 48 32 23 24.1 101.18     Mainly Clear
12:00 Legend Double Dagger 18.5 6.5 45 29 25 24.1 101.16     LegendNANA
13:00 Legend Double Dagger 17.2 5.9 47 32 26 24.1 101.14     LegendNANA
14:00 Legend Double Dagger 17.3 8.5 56 32 22 24.1 101.18     Mostly Cloudy
15:00 Legend Double Dagger 16.8 8.8 59 34 18 24.1 101.18     LegendNANA
16:00 Legend Double Dagger 16.3 8.6 60 32 18 24.1 101.25     LegendNANA
17:00 Legend Double Dagger 14.9 9.3 69 34 12 24.1 101.29     Mostly Cloudy
18:00 Legend Double Dagger 13.1 8.8 75 32 8 24.1 101.33     LegendNANA
19:00 Legend Double Dagger 11.2 8.4 83 35 6 24.1 101.32     LegendNANA
20:00 Legend Double Dagger 11.1 9.2 88 29 4 24.1 101.37     Mostly Cloudy
21:00 Legend Double Dagger 12.5 9.4 81 25 8 24.1 101.39     LegendNANA
22:00 Legend Double Dagger 11.6 9.2 85 28 5 24.1 101.38     LegendNANA
23:00 Legend Double Dagger 11.5 8.9 84 20 4 24.1 101.33     Mostly Cloudy

Notes on Data Quality.

Legend

  • E = Estimated
  • M = Missing
  • NA = Not Available
  • ‡ = Partner data that is not subject to review by the National Climate Archives
Date modified: